Home   Weather   Lüneburg   Past weeks

Flag for Germany Past Weather in Lüneburg, Lower Saxony, Germany — Yesterday and Last 2 Weeks

Now
32 °F

Ice fog.


Feels Like: 32 °F
Forecast: 24 / 28 °F
Wind: No wind

Location: Fassberg

Current Time: Jan 21, 2017 at 10:00:09 am

Latest Report: Jan 21, 2017 at 8:20 am


Visibility: 1 mi

Pressure: 30.48 "Hg

Humidity: 100%

Dew Point: 32 °F

Location of LüneburgLocation

Past Weather in Lüneburg — Graph

°F

Lüneburg Temperature Yesterday

Maximum temperature yesterday: 34 °F (at 1:20 pm)
Minimum temperature yesterday: 23 °F (at 8:20 am)
Average temperature yesterday: 30 °F

High & Low Weather Summary for the Past Weeks

 TemperatureHumidityPressure
High41 °F (Jan 11, 4:40 pm)100% (Jan 7, 6:12 pm)30.77 "Hg (Jan 7, 6:12 pm)
Low7 °F (Jan 6, 8:20 am)58% (Jan 6, 3:20 pm)28.97 "Hg (Jan 13, 5:20 am)
Average30 °F89%30.11 "Hg
* Reported Jan 6 8:20 am — Jan 21 8:20 am, Lüneburg, Weather by CustomWeather, © 2017

Note: Actual official high and low records may vary slightly from our data, if they occured in-between our weather recording intervals... More about our weather records

Advertising

Lüneburg Weather History for the Previous 24 Hours

Scroll right to see more
 ConditionsComfort  
Time TempWeatherWind HumidityBarometerVisibility
8:20 am
Sat, Jan 21
32 °FIce fog.No wind100%30.48 "Hg1 mi
7:20 am32 °FIce fog.2 mph100%30.48 "Hg1 mi
6:20 am32 °FIce fog.1 mph100%30.51 "Hg1 mi
5:35 am32 °FIce fog.2 mph100%30.51 "Hg1 mi
4:20 am32 °FIce fog.1 mph100%30.51 "Hg1 mi
3:20 am34 °FFog.2 mph93%30.51 "Hg1 mi
2:20 am32 °FFog.1 mph100%30.51 "Hg1 mi
1:20 am32 °FFog.2 mph100%30.54 "Hg1 mi
12:20 am32 °FIce fog.1 mph100%30.54 "Hg1 mi
11:20 pm
Fri, Jan 20
32 °FIce fog.1 mph100%30.54 "Hg1 mi
10:20 pm32 °FIce fog.1 mph100%30.54 "Hg1 mi
9:20 pm32 °FIce fog.2 mph100%30.54 "Hg1 mi
8:20 pm32 °FDrizzle. Ice fog.2 mph100%30.54 "Hg1 mi
7:20 pm32 °FIce fog.1 mph100%30.54 "Hg2 mi
6:20 pm32 °FIce fog.2 mph93%30.54 "Hg2 mi
5:20 pm34 °FFog.3 mph93%30.57 "Hg3 mi
4:20 pm34 °FBroken clouds.2 mph87%30.57 "Hg4 mi
3:20 pm34 °FPartly sunny.3 mph87%30.57 "HgN/A
2:20 pm34 °FPartly sunny.3 mph87%30.57 "HgN/A
1:20 pm34 °FPartly sunny.1 mph81%30.57 "HgN/A
12:20 pm32 °FPartly sunny.2 mph80%30.60 "HgN/A
11:20 am30 °FPartly sunny.3 mph80%30.60 "HgN/A
10:20 am30 °FPartly sunny.3 mph80%30.60 "HgN/A
Weather by CustomWeather, © 2017

See weather overviewHow to use our weather pages